Regional Weather Roundup
Issued by NWS

Home | Current Version | Previous Version | Graphics & Text | Print | Product List | Glossary On
Versions: 1 2 3 4 5 6 7 8 9 10 11 12 13 14 15 16 17 18 19 20 21 22 23 24 25 26 27 28 29 30 31 32 33 34 35 36 37 38 39 40 41 42 43 44 45 46 47 48 49 50
000
ASUS43 KDMX 012307
RWRIA

WEATHER ROUNDUP FOR IOWA
NATIONAL WEATHER SERVICE DES MOINES IA
600 PM CDT MON SEP 01 2014

NOTE: "FAIR" INDICATES FEW OR NO CLOUDS BELOW 12,000 FEET WITH NO
SIGNIFICANT WEATHER AND/OR OBSTRUCTIONS TO VISIBILITY.

* - THESE STATIONS ARE NOT NWS STATIONS...THUS NOT UNDER NWS
QUALITY CONTROL.  THEY ALSO DO NOT REPORT WEATHER SUCH
AS PRECIPITATION OR FOG.

IAZ001>003-012>014-020>022-031>034-043>046-020000-
   NORTHWEST IOWA

CITY           SKY/WX    TMP DP  RH WIND       PRES   REMARKS
CARROLL *      SUNNY     73  64  73 W7        29.86S
CHEROKEE *     MOSUNNY   77  61  57 W7        29.85R
DENISON *      SUNNY     73  64  73 W3        29.86R
LE MARS *      LGT RAIN  72  63  73 NW3G14    29.85S
ORANGE CITY *  SUNNY     77  59  53 W6        29.85S
SHELDON *      SUNNY     75  61  60 W6        29.83S
SIOUX CITY     MOSUNNY   80  60  50 SW3       29.85R HX  81
SPENCER        SUNNY     77  60  55 W12       29.84R
STORM LAKE *   SUNNY     73  72  94 W6        29.86S
$$

IAZ055>058-069>071-079>083-090>094-020000-
   SOUTHWEST IOWA

CITY           SKY/WX    TMP DP  RH WIND       PRES   REMARKS
ATLANTIC *     SUNNY     75  63  64 CALM      29.87S
AUDUBON *      SUNNY     75  66  73 CALM      29.88R
CLARINDA *     SUNNY     75  66  73 W6        29.89S
COUNCIL BLFS * SUNNY     75  64  69 CALM      29.88R
CRESTON *      MOSUNNY   73  64  73 NW5       29.89R
HARLAN  *      SUNNY     73  64  73 CALM      29.89F
LAMONI         PTSUNNY   74  66  76 SW6       29.88S
RED OAK *      PTSUNNY   75  64  69 NW5       29.88R
SHENANDOAH *   SUNNY     75  66  73 NW3       29.89R
$$

IAZ047>049-059>061-072>074-084-020000-
   CENTRAL IOWA

CITY           SKY/WX    TMP DP  RH WIND       PRES   REMARKS
AMES           PTSUNNY   75  61  61 NW8       29.85R
ANKENY *       SUNNY     75  63  64 W10       29.85R
CHARITON *     SUNNY     75  64  69 W6        29.87R
DES MOINES     PTSUNNY   77  62  59 W7        29.86R
GRINNELL*      PTSUNNY   73  64  73 SW3       29.86R
KNOXVILLE *    MOSUNNY   77  63  61 W12       29.85R
MARSHALLTOWN   MOSUNNY   74  63  68 NW9       29.83R
PELLA *        PTSUNNY   79  64  61 W7        29.86R HX  81
PERRY *          N/A     73  63  68 CALM      29.86R
$$

IAZ004>006-015-016-023>025-035-036-020000-
   NORTH CENTRAL IOWA

CITY           SKY/WX    TMP DP  RH WIND       PRES   REMARKS
ALGONA *       MOSUNNY   70  57  64 N8G15     29.85R
CLARION *      SUNNY     75  61  60 W6        29.84R
ESTHERVILLE    MOSUNNY   71  58  63 CALM      29.84R
FORT DODGE *   PTSUNNY   73  59  60 W5        29.86R
MASON CITY     SUNNY     75  57  53 NW12      29.84R
FOREST CITY *  SUNNY     73  55  53 NW17G24   29.84R
IOWA FALLS *     N/A     77  59  53 W8        29.86R
$$

IAZ007>011-017>019-026>030-037>042-050>054-066-020000-
   NORTHEAST IOWA

CITY           SKY/WX    TMP DP  RH WIND       PRES   REMARKS
CEDAR RAPIDS   MOSUNNY   77  66  68 W10       29.82R
CHARLES CITY * SUNNY     75  61  60 W7G14     29.83R
CLINTON *      MOSUNNY   79  66  65 W13       29.82R HX  81
DECORAH *      MOSUNNY   73  59  60 VRB6      29.80R
DUBUQUE        SUNNY     74  64  71 W8        29.81R
MONTICELLO *   SUNNY     77  66  69 W7        29.81R
OELWEIN *      MOSUNNY   75  61  60 W9        29.83R
WATERLOO       SUNNY     78  58  49 NW12      29.81R
$$

IAZ064-065-067-068-078-020000-
   EAST CENTRAL IOWA

CITY           SKY/WX    TMP DP  RH WIND       PRES   REMARKS
DAVENPORT      PTSUNNY   77  66  68 SW12      29.81R
IOWA CITY      MOSUNNY   79  66  64 W14       29.83R HX  81
MT. PLEASANT * SUNNY     79  64  61 SW8       29.84S HX  81
MUSCATINE *    PTSUNNY   79  66  65 W15       29.83R HX  81
QUAD CITIES    SUNNY     80  66  62 SW10G22   29.80R HX  82
$$

IAZ062-063-075>077-085>089-095>099-020000-
   SOUTHEAST IOWA

CITY           SKY/WX    TMP DP  RH WIND       PRES   REMARKS
BURLINGTON     LGT RAIN  79  68  69 W9        29.84S HX  81
FAIRFIELD *    PTSUNNY   77  66  69 SW8       29.84S
FORT MADISON * SUNNY     79  68  69 SW5       29.86S HX  81
KEOKUK *       SUNNY     79  68  69 SW8       29.85S HX  81
OSKALOOSA *      N/A     77  66  69 W9        29.85R
CENTERVILLE *  SUNNY     75  68  78 SW5       29.88S
OTTUMWA        PTSUNNY   77  67  71 W7        29.85R
WASHINGTON *   PTSUNNY   77  68  73 W9        29.84R
$$

ABBREVIATIONS USED IN REMARKS
   TC - TEMPERATURES IN CELSIUS
  WCI - WIND CHILL INDEX
   HX - HEAT INDEX
  VSB - VISIBILITY
$$



USA.gov is the U.S. government's official web portal to all federal, state and local government web resources and services.